Location: Unnamed
(48.6007°N, 2.4808°E)
Time: 23:15:52
(UTC+01:00)

RS-44 - Visible Passes

Search period start: 22 March 2023 00:00
Search period end: 01 April 2023 01:00
Orbit: 1174 x 1511 km, 82.5° (Epoch: 21 March)

Date Brightness Start Highest point End Pass type
(mag) Time Alt. Az. Time Alt. Az. Time Alt. Az.
22 Mar ? 00:52:06 10° NNE 00:56:38 16° NE 01:01:07 10° E visible
22 Mar ? 02:43:57 10° N 02:51:47 64° ENE 02:53:40 52° SE visible
22 Mar ? 04:38:02 10° NNW 04:44:47 32° W 04:46:14 30° WSW visible
23 Mar ? 01:15:03 10° N 01:21:09 23° ENE 01:24:25 19° E visible
23 Mar ? 03:07:42 10° N 03:15:39 90° W 03:16:59 68° S visible
23 Mar ? 05:02:32 10° NNW 05:08:08 21° WNW 05:09:33 20° W visible
24 Mar ? 01:38:22 10° N 01:45:28 34° ENE 01:47:47 29° E visible
24 Mar ? 03:31:34 10° NNW 03:39:23 63° W 03:40:21 60° WSW visible
24 Mar ? 05:27:47 10° NW 05:31:18 14° WNW 05:32:54 13° W visible
25 Mar ? 00:11:03 10° NNE 00:13:54 12° NE 00:16:47 10° ENE visible
25 Mar ? 02:01:54 10° N 02:09:36 49° ENE 02:11:10 44° ESE visible
25 Mar ? 03:55:34 10° NNW 04:02:59 43° W 04:03:44 42° W visible
26 Mar ? 00:33:23 10° NNE 00:38:35 18° NE 00:42:01 14° E visible
26 Mar ? 03:25:33 10° N 03:33:35 71° ENE 03:34:35 65° ESE visible
26 Mar ? 05:19:48 10° NNW 05:26:27 29° W 05:27:10 29° W visible
27 Mar ? 01:56:30 10° N 02:03:03 26° ENE 02:05:28 23° E visible
27 Mar ? 03:49:20 10° NNW 03:57:25 82° W 03:58:02 77° SSW visible
27 Mar ? 05:44:24 10° NW 05:49:44 19° WNW 05:50:37 19° W visible
28 Mar ? 02:19:55 10° N 02:27:20 38° ENE 02:28:57 35° E visible
28 Mar ? 04:13:14 10° NNW 04:21:08 58° W 04:21:32 57° WSW visible
28 Mar ? 06:10:03 10° NW 06:12:52 12° WNW 06:14:07 12° W visible
29 Mar ? 00:52:02 10° NNE 00:55:54 14° NE 00:59:52 10° ENE visible
29 Mar ? 02:43:29 10° N 02:51:26 55° ENE 02:52:27 52° E visible
29 Mar ? 04:37:18 10° NNW 04:44:41 39° W 04:45:02 39° W visible
30 Mar ? 01:14:46 10° N 01:20:33 20° ENE 01:23:24 17° E visible
30 Mar ? 03:07:11 10° N 03:15:23 78° E 03:15:59 74° ESE visible
30 Mar ? 05:01:36 10° NNW 05:08:06 27° W 05:08:33 27° W visible
31 Mar ? 01:38:01 10° N 01:44:58 29° ENE 01:46:56 27° E visible
31 Mar ? 03:31:00 10° NNW 03:39:12 76° W 03:39:31 75° WSW visible
31 Mar ? 05:26:21 10° NW 05:31:21 18° WNW 05:32:06 17° W visible
01 Apr ? 00:11:55 10° NE 00:13:06 10° NE 00:14:16 10° NE visible
